ACA226 CYVR-CYYC

Flight info

Callsign ACA226
Flight time N/A
Altitude 35000
Route YVR4 CILLI Q983 AMITO IGVEP7
Aircraft A21N/M-SDE2E3FGHIRWXY/LB1

Departure

Time 2026-05-05 06:25
Airport Vancouver International Airport (CYVR)

Arrival

Time N/A
Airport Calgary International Airport (CYYC)
Time Latitude Longitude Altitude Speed Heading
2026-05-05 05:56 49.19295 -123.18362 30 ft 0 kts 188°
2026-05-05 06:12 49.19306 -123.18359 22 ft 3 kts 213°
2026-05-05 06:12 49.19322 -123.18344 30 ft 3 kts 213°
2026-05-05 06:13 49.19337 -123.18328 28 ft 3 kts 213°
2026-05-05 06:13 49.19351 -123.18312 30 ft 3 kts 230°
2026-05-05 06:13 49.19352 -123.18310 30 ft 0 kts 230°
2026-05-05 06:16 49.19351 -123.18312 30 ft 2 kts 231°
2026-05-05 06:17 49.19337 -123.18354 31 ft 8 kts 247°
2026-05-05 06:17 49.19308 -123.18463 30 ft 14 kts 248°
2026-05-05 06:17 49.19334 -123.18556 28 ft 10 kts 349°
2026-05-05 06:17 49.19392 -123.18603 28 ft 8 kts 294°
2026-05-05 06:18 49.19393 -123.18609 28 ft 0 kts 289°
2026-05-05 06:19 49.19396 -123.18620 30 ft 3 kts 288°
2026-05-05 06:19 49.19400 -123.18676 28 ft 8 kts 272°
2026-05-05 06:19 49.19393 -123.18775 28 ft 12 kts 259°
2026-05-05 06:19 49.19369 -123.18918 28 ft 16 kts 258°
2026-05-05 06:20 49.19349 -123.19084 28 ft 16 kts 259°
2026-05-05 06:20 49.19329 -123.19245 25 ft 15 kts 261°
2026-05-05 06:20 49.19310 -123.19409 25 ft 15 kts 260°
2026-05-05 06:20 49.19293 -123.19556 28 ft 13 kts 259°
2026-05-05 06:21 49.19277 -123.19692 28 ft 13 kts 259°
2026-05-05 06:21 49.19261 -123.19822 26 ft 12 kts 259°
2026-05-05 06:21 49.19244 -123.19945 27 ft 11 kts 258°
2026-05-05 06:21 49.19228 -123.20060 27 ft 11 kts 258°
2026-05-05 06:22 49.19214 -123.20169 28 ft 10 kts 259°
2026-05-05 06:22 49.19202 -123.20271 27 ft 10 kts 260°
2026-05-05 06:22 49.19188 -123.20382 26 ft 11 kts 252°
2026-05-05 06:22 49.19132 -123.20425 26 ft 10 kts 189°
2026-05-05 06:23 49.19057 -123.20442 27 ft 12 kts 190°
2026-05-05 06:23 49.18973 -123.20453 27 ft 11 kts 157°
2026-05-05 06:23 49.18966 -123.20429 26 ft 3 kts 100°
2026-05-05 06:23 49.18962 -123.20391 26 ft 5 kts 100°
2026-05-05 06:24 49.18951 -123.20305 27 ft 19 kts 100°
2026-05-05 06:24 49.18892 -123.19778 28 ft 82 kts 100°
2026-05-05 06:24 49.18755 -123.18579 24 ft 146 kts 100°
2026-05-05 06:24 49.18554 -123.16835 156 ft 180 kts 100°
2026-05-05 06:25 49.18333 -123.14894 620 ft 190 kts 100°
2026-05-05 06:25 49.18110 -123.12885 1133 ft 199 kts 100°
2026-05-05 06:25 49.17879 -123.10752 1727 ft 207 kts 100°
2026-05-05 06:25 49.17647 -123.08549 2345 ft 210 kts 100°
2026-05-05 06:26 49.17423 -123.06350 2932 ft 208 kts 99°
2026-05-05 06:26 49.17257 -123.04093 3259 ft 222 kts 95°
2026-05-05 06:26 49.17119 -123.01647 3460 ft 241 kts 96°
2026-05-05 06:26 49.16940 -122.99048 3796 ft 252 kts 97°
2026-05-05 06:27 49.16724 -122.96333 4163 ft 264 kts 97°
2026-05-05 06:27 49.16220 -122.90605 5251 ft 276 kts 97°
2026-05-05 06:27 49.15952 -122.87694 5917 ft 278 kts 97°
2026-05-05 06:28 49.15679 -122.84762 6561 ft 280 kts 97°
2026-05-05 06:28 49.15407 -122.81856 7189 ft 281 kts 97°
2026-05-05 06:28 49.15128 -122.78885 7857 ft 283 kts 97°
2026-05-05 06:28 49.14844 -122.75885 8545 ft 286 kts 97°
2026-05-05 06:29 49.14558 -122.72870 9257 ft 288 kts 97°
2026-05-05 06:29 49.14269 -122.69838 9963 ft 290 kts 97°
2026-05-05 06:29 49.13978 -122.66789 10397 ft 301 kts 97°
2026-05-05 06:29 49.13669 -122.63543 10669 ft 319 kts 97°
2026-05-05 06:30 49.13341 -122.60110 10941 ft 336 kts 97°
2026-05-05 06:30 49.12994 -122.56496 11406 ft 350 kts 98°
2026-05-05 06:30 49.12634 -122.52772 11436 ft 360 kts 97°
2026-05-05 06:30 49.12264 -122.48962 12034 ft 364 kts 96°
2026-05-05 06:31 49.11889 -122.45135 12673 ft 368 kts 96°
2026-05-05 06:31 49.11507 -122.41240 13266 ft 372 kts 96°
2026-05-05 06:31 49.11120 -122.37303 13840 ft 376 kts 95°
2026-05-05 06:31 49.10729 -122.33334 14351 ft 379 kts 95°
2026-05-05 06:32 49.10333 -122.29335 14867 ft 383 kts 95°
2026-05-05 06:32 49.09933 -122.25296 15386 ft 386 kts 95°
2026-05-05 06:32 49.09528 -122.21237 15899 ft 389 kts 95°
2026-05-05 06:32 49.09119 -122.17138 16414 ft 392 kts 95°
2026-05-05 06:33 49.08711 -122.13071 16910 ft 395 kts 95°
2026-05-05 06:33 49.08291 -122.08913 17394 ft 398 kts 95°
2026-05-05 06:33 49.07867 -122.04715 17876 ft 401 kts 95°
2026-05-05 06:33 49.07438 -122.00478 18343 ft 404 kts 94°
2026-05-05 06:34 49.07011 -121.96293 18749 ft 407 kts 94°
2026-05-05 06:34 49.06573 -121.92010 19142 ft 409 kts 94°
2026-05-05 06:34 49.06132 -121.87717 19608 ft 411 kts 94°
2026-05-05 06:34 49.05688 -121.83406 20040 ft 413 kts 94°
2026-05-05 06:35 49.05384 -121.80473 20325 ft 415 kts 94°
2026-05-05 06:35 49.04786 -121.74701 20922 ft 418 kts 94°
2026-05-05 06:35 49.04328 -121.70300 21315 ft 420 kts 94°
2026-05-05 06:35 49.03868 -121.65897 21729 ft 422 kts 94°
2026-05-05 06:36 49.03403 -121.61461 22151 ft 424 kts 94°
2026-05-05 06:36 49.02937 -121.57003 22542 ft 427 kts 94°
2026-05-05 06:36 49.02624 -121.54042 22817 ft 429 kts 94°
2026-05-05 06:36 49.02335 -121.48019 23286 ft 423 kts 81°
2026-05-05 06:37 49.02552 -121.45078 23533 ft 419 kts 73°
2026-05-05 06:37 49.03086 -121.42270 23682 ft 413 kts 61°